Time,TemperatureF,DewpointF,PressureIn,WindDirection,WindDirectionDegrees,WindSpeedMPH,WindSpeedGustMPH,Humidity,HourlyPrecipIn,Conditions,Clouds,dailyrainin,SoftwareType,DateUTC
2013-01-03 00:02:00,28.0,22.0,-100.00,SW,215,4.0,14.0,78,-99.99,,,-99.99,,2013-01-03 06:02:00,
2013-01-03 00:12:00,28.0,22.0,-100.00,WSW,240,7.0,17.0,79,-99.99,,,-99.99,,2013-01-03 06:12:00,
2013-01-03 00:22:00,28.0,23.0,-100.00,SW,235,9.0,16.0,80,-99.99,,,-99.99,,2013-01-03 06:22:00,
2013-01-03 00:32:00,28.0,23.0,-100.00,SW,215,6.0,12.0,80,-99.99,,,-99.99,,2013-01-03 06:32:00,
2013-01-03 00:42:00,28.0,23.0,-100.00,SW,215,6.0,12.0,80,-99.99,,,-99.99,,2013-01-03 06:42:00,
2013-01-03 00:53:00,28.0,23.0,-100.00,SW,230,5.0,13.0,80,-99.99,,,-99.99,,2013-01-03 06:53:00,
2013-01-03 01:02:00,28.0,23.0,-100.00,SW,230,5.0,13.0,80,-99.99,,,-99.99,,2013-01-03 07:02:00,
2013-01-03 01:12:00,28.0,23.0,-100.00,SW,215,7.0,14.0,80,-99.99,,,-99.99,,2013-01-03 07:12:00,
2013-01-03 01:22:00,29.0,23.0,-100.00,SW,230,8.0,15.0,81,-99.99,,,-99.99,,2013-01-03 07:22:00,
2013-01-03 01:33:00,29.0,23.0,-100.00,SW,230,8.0,15.0,81,-99.99,,,-99.99,,2013-01-03 07:33:00,
2013-01-03 01:42:00,29.0,24.0,-100.00,WSW,240,6.0,14.0,83,-99.99,,,-99.99,,2013-01-03 07:42:00,
2013-01-03 01:53:00,29.0,24.0,-100.00,WSW,250,8.0,14.0,83,-99.99,,,-99.99,,2013-01-03 07:53:00,
2013-01-03 02:02:00,29.0,24.0,-100.00,WSW,250,8.0,14.0,83,-99.99,,,-99.99,,2013-01-03 08:02:00,
2013-01-03 02:12:00,29.0,24.0,-100.00,SW,225,6.0,13.0,83,-99.99,,,-99.99,,2013-01-03 08:12:00,
2013-01-03 02:22:00,29.0,25.0,-100.00,West,260,7.0,13.0,83,-99.99,,,-99.99,,2013-01-03 08:22:00,
2013-01-03 02:32:00,29.0,25.0,-100.00,West,260,7.0,13.0,83,-99.99,,,-99.99,,2013-01-03 08:32:00,
2013-01-03 02:42:00,29.0,25.0,-100.00,WSW,245,7.0,15.0,83,-99.99,,,-99.99,,2013-01-03 08:42:00,
2013-01-03 02:53:00,29.0,25.0,-100.00,SW,230,6.0,14.0,83,-99.99,,,-99.99,,2013-01-03 08:53:00,
2013-01-03 03:02:00,29.0,25.0,-100.00,SW,230,6.0,14.0,83,-99.99,,,-99.99,,2013-01-03 09:02:00,
2013-01-03 03:12:00,29.0,25.0,-100.00,WSW,245,1.0,11.0,84,-99.99,,,-99.99,,2013-01-03 09:12:00,
2013-01-03 03:22:00,30.0,25.0,-100.00,SW,235,9.0,16.0,83,-99.99,,,-99.99,,2013-01-03 09:22:00,
2013-01-03 03:33:00,30.0,25.0,-100.00,West,265,10.0,21.0,84,-99.99,,,-99.99,,2013-01-03 09:33:00,
2013-01-03 03:43:00,30.0,25.0,-100.00,West,265,10.0,21.0,84,-99.99,,,-99.99,,2013-01-03 09:43:00,
2013-01-03 03:53:00,30.0,25.0,-100.00,WSW,250,9.0,16.0,84,-99.99,,,-99.99,,2013-01-03 09:53:00,
2013-01-03 04:02:00,30.0,25.0,-100.00,WSW,250,9.0,16.0,84,-99.99,,,-99.99,,2013-01-03 10:02:00,
2013-01-03 04:12:00,30.0,26.0,-100.00,West,265,11.0,16.0,85,-99.99,,,-99.99,,2013-01-03 10:12:00,
2013-01-03 04:22:00,30.0,26.0,-100.00,WSW,240,9.0,16.0,86,-99.99,,,-99.99,,2013-01-03 10:22:00,
2013-01-03 04:33:00,30.0,26.0,-100.00,WSW,240,9.0,16.0,86,-99.99,,,-99.99,,2013-01-03 10:33:00,
2013-01-03 04:42:00,30.0,26.0,-100.00,West,265,9.0,16.0,85,-99.99,,,-99.99,,2013-01-03 10:42:00,
2013-01-03 04:53:00,30.0,26.0,-100.00,West,260,9.0,15.0,86,-99.99,,,-99.99,,2013-01-03 10:53:00,
2013-01-03 05:02:00,30.0,26.0,-100.00,West,260,9.0,15.0,86,-99.99,,,-99.99,,2013-01-03 11:02:00,
2013-01-03 05:12:00,30.0,26.0,-100.00,WSW,245,6.0,16.0,86,-99.99,,,-99.99,,2013-01-03 11:12:00,
2013-01-03 05:22:00,30.0,26.0,-100.00,WSW,255,6.0,14.0,86,-99.99,,,-99.99,,2013-01-03 11:22:00,
2013-01-03 05:33:00,30.0,26.0,-100.00,WSW,255,6.0,14.0,86,-99.99,,,-99.99,,2013-01-03 11:33:00,
2013-01-03 05:43:00,30.0,26.0,-100.00,WSW,250,5.0,13.0,85,-99.99,,,-99.99,,2013-01-03 11:43:00,
2013-01-03 05:53:00,30.0,25.0,-100.00,WSW,245,7.0,14.0,84,-99.99,,,-99.99,,2013-01-03 11:53:00,
2013-01-03 06:03:00,30.0,25.0,-100.00,WSW,245,7.0,14.0,84,-99.99,,,-99.99,,2013-01-03 12:03:00,
2013-01-03 06:12:00,30.0,25.0,-100.00,WSW,250,11.0,15.0,84,-99.99,,,-99.99,,2013-01-03 12:12:00,
2013-01-03 06:22:00,30.0,25.0,-100.00,WSW,255,9.0,16.0,83,-99.99,,,-99.99,,2013-01-03 12:22:00,
2013-01-03 06:33:00,30.0,25.0,-100.00,WSW,255,9.0,16.0,83,-99.99,,,-99.99,,2013-01-03 12:33:00,
2013-01-03 06:42:00,29.0,24.0,-100.00,WSW,240,10.0,17.0,81,-99.99,,,-99.99,,2013-01-03 12:42:00,
2013-01-03 06:53:00,29.0,24.0,-100.00,WSW,245,7.0,16.0,80,-99.99,,,-99.99,,2013-01-03 12:53:00,
2013-01-03 07:02:00,29.0,24.0,-100.00,WSW,245,7.0,16.0,80,-99.99,,,-99.99,,2013-01-03 13:02:00,
2013-01-03 07:13:00,29.0,23.0,-100.00,West,260,6.0,19.0,79,-99.99,,,-99.99,,2013-01-03 13:13:00,
2013-01-03 07:22:00,29.0,23.0,-100.00,West,260,9.0,16.0,78,-99.99,,,-99.99,,2013-01-03 13:22:00,
2013-01-03 07:33:00,29.0,23.0,-100.00,West,260,9.0,16.0,78,-99.99,,,-99.99,,2013-01-03 13:33:00,
2013-01-03 07:42:00,29.0,23.0,-100.00,West,265,9.0,14.0,78,-99.99,,,-99.99,,2013-01-03 13:42:00,
2013-01-03 07:53:00,29.0,23.0,-100.00,WSW,255,9.0,14.0,80,-99.99,,,-99.99,,2013-01-03 13:53:00,
2013-01-03 08:03:00,29.0,23.0,-100.00,WSW,255,9.0,14.0,80,-99.99,,,-99.99,,2013-01-03 14:03:00,
2013-01-03 08:12:00,29.0,22.0,-100.00,West,260,7.0,16.0,77,-99.99,,,-99.99,,2013-01-03 14:12:00,
2013-01-03 08:23:00,29.0,22.0,-100.00,WSW,250,9.0,15.0,77,-99.99,,,-99.99,,2013-01-03 14:23:00,
2013-01-03 08:33:00,28.0,22.0,-100.00,WSW,255,8.0,16.0,77,-99.99,,,-99.99,,2013-01-03 14:33:00,
2013-01-03 08:42:00,28.0,22.0,-100.00,WSW,255,8.0,16.0,77,-99.99,,,-99.99,,2013-01-03 14:42:00,
2013-01-03 08:53:00,29.0,22.0,-100.00,WSW,250,9.0,17.0,77,-99.99,,,-99.99,,2013-01-03 14:53:00,
2013-01-03 09:03:00,29.0,22.0,-100.00,WSW,250,9.0,17.0,77,-99.99,,,-99.99,,2013-01-03 15:03:00,
2013-01-03 09:12:00,29.0,22.0,-100.00,West,260,12.0,21.0,77,-99.99,,,-99.99,,2013-01-03 15:12:00,
2013-01-03 09:22:00,29.0,22.0,-100.00,WSW,255,9.0,18.0,77,-99.99,,,-99.99,,2013-01-03 15:22:00,
2013-01-03 09:33:00,29.0,22.0,-100.00,West,260,8.0,20.0,77,-99.99,,,-99.99,,2013-01-03 15:33:00,
2013-01-03 09:43:00,29.0,22.0,-100.00,West,260,8.0,20.0,77,-99.99,,,-99.99,,2013-01-03 15:43:00,
2013-01-03 09:53:00,28.0,22.0,-100.00,WNW,285,11.0,23.0,75,-99.99,,,-99.99,,2013-01-03 15:53:00,
2013-01-03 10:03:00,28.0,22.0,-100.00,WNW,285,11.0,23.0,75,-99.99,,,-99.99,,2013-01-03 16:03:00,
2013-01-03 10:12:00,28.0,21.0,-100.00,West,265,14.0,24.0,74,-99.99,,,-99.99,,2013-01-03 16:12:00,
2013-01-03 10:22:00,27.0,17.0,-100.00,WSW,250,10.0,22.0,66,-99.99,,,-99.99,,2013-01-03 16:22:00,
2013-01-03 10:33:00,27.0,18.0,-100.00,West,275,14.0,19.0,69,-99.99,,,-99.99,,2013-01-03 16:33:00,
2013-01-03 10:43:00,27.0,18.0,-100.00,West,275,14.0,19.0,69,-99.99,,,-99.99,,2013-01-03 16:43:00,
2013-01-03 10:53:00,25.0,15.0,-100.00,West,280,14.0,24.0,65,-99.99,,,-99.99,,2013-01-03 16:53:00,
2013-01-03 11:03:00,25.0,15.0,-100.00,West,280,14.0,24.0,65,-99.99,,,-99.99,,2013-01-03 17:03:00,
2013-01-03 11:12:00,26.0,16.0,-100.00,West,280,13.0,18.0,66,-99.99,,,-99.99,,2013-01-03 17:12:00,
2013-01-03 11:23:00,25.0,15.0,-100.00,WSW,255,11.0,20.0,67,-99.99,,,-99.99,,2013-01-03 17:23:00,
2013-01-03 11:33:00,25.0,15.0,-100.00,WSW,255,11.0,20.0,67,-99.99,,,-99.99,,2013-01-03 17:33:00,
2013-01-03 11:43:00,24.0,15.0,-100.00,West,275,14.0,21.0,68,-99.99,,,-99.99,,2013-01-03 17:43:00,
2013-01-03 11:53:00,24.0,15.0,-100.00,WNW,285,15.0,20.0,66,-99.99,,,-99.99,,2013-01-03 17:53:00,
2013-01-03 12:03:00,24.0,15.0,-100.00,WNW,285,15.0,20.0,66,-99.99,,,-99.99,,2013-01-03 18:03:00,
2013-01-03 12:13:00,23.0,14.0,-100.00,West,280,14.0,21.0,68,-99.99,,,-99.99,,2013-01-03 18:13:00,
2013-01-03 12:22:00,23.0,14.0,-100.00,West,275,11.0,21.0,69,-99.99,,,-99.99,,2013-01-03 18:22:00,
2013-01-03 12:33:00,23.0,14.0,-100.00,West,275,11.0,21.0,69,-99.99,,,-99.99,,2013-01-03 18:33:00,
2013-01-03 12:42:00,23.0,15.0,-100.00,West,275,14.0,21.0,71,-99.99,,,-99.99,,2013-01-03 18:42:00,
2013-01-03 12:53:00,23.0,14.0,-100.00,WNW,285,9.0,19.0,69,-99.99,,,-99.99,,2013-01-03 18:53:00,
2013-01-03 13:03:00,23.0,14.0,-100.00,WNW,285,9.0,19.0,69,-99.99,,,-99.99,,2013-01-03 19:03:00,
2013-01-03 13:12:00,23.0,14.0,-100.00,West,265,11.0,20.0,67,-99.99,,,-99.99,,2013-01-03 19:12:00,
2013-01-03 13:55:00,24.0,15.0,-100.00,WSW,255,11.0,21.0,68,-99.99,,,-99.99,,2013-01-03 19:55:00,
2013-01-03 14:03:00,24.0,15.0,-100.00,West,265,8.0,16.0,70,-99.99,,,-99.99,,2013-01-03 20:03:00,
2013-01-03 14:12:00,23.0,16.0,-100.00,West,275,12.0,17.0,72,-99.99,,,-99.99,,2013-01-03 20:12:00,
2013-01-03 14:22:00,23.0,15.0,-100.00,West,275,9.0,21.0,70,-99.99,,,-99.99,,2013-01-03 20:22:00,
2013-01-03 14:33:00,23.0,15.0,-100.00,West,275,9.0,21.0,70,-99.99,,,-99.99,,2013-01-03 20:33:00,
2013-01-03 14:42:00,23.0,15.0,-100.00,West,280,10.0,19.0,72,-99.99,,,-99.99,,2013-01-03 20:42:00,
2013-01-03 14:53:00,23.0,15.0,-100.00,WNW,285,10.0,18.0,73,-99.99,,,-99.99,,2013-01-03 20:53:00,
2013-01-03 15:02:00,23.0,15.0,-100.00,WNW,285,10.0,18.0,73,-99.99,,,-99.99,,2013-01-03 21:02:00,
2013-01-03 15:12:00,23.0,15.0,-100.00,WSW,255,8.0,16.0,72,-99.99,,,-99.99,,2013-01-03 21:12:00,
2013-01-03 15:22:00,23.0,15.0,-100.00,West,270,9.0,17.0,71,-99.99,,,-99.99,,2013-01-03 21:22:00,
2013-01-03 15:36:00,23.0,15.0,-100.00,West,270,9.0,17.0,71,-99.99,,,-99.99,,2013-01-03 21:36:00,
2013-01-03 15:48:00,22.0,14.0,-100.00,WSW,240,9.0,17.0,69,-99.99,,,-99.99,,2013-01-03 21:48:00,
2013-01-03 16:03:00,22.0,14.0,-100.00,West,280,9.0,15.0,71,-99.99,,,-99.99,,2013-01-03 22:03:00,
2013-01-03 16:12:00,22.0,15.0,-100.00,West,280,10.0,16.0,74,-99.99,,,-99.99,,2013-01-03 22:12:00,
2013-01-03 16:22:00,22.0,14.0,-100.00,West,260,9.0,15.0,73,-99.99,,,-99.99,,2013-01-03 22:22:00,
2013-01-03 16:33:00,22.0,14.0,-100.00,West,260,9.0,15.0,73,-99.99,,,-99.99,,2013-01-03 22:33:00,
2013-01-03 16:42:00,21.0,14.0,-100.00,WSW,250,9.0,14.0,74,-99.99,,,-99.99,,2013-01-03 22:42:00,
2013-01-03 16:53:00,21.0,14.0,-100.00,West,260,9.0,16.0,75,-99.99,,,-99.99,,2013-01-03 22:53:00,
2013-01-03 17:03:00,21.0,14.0,-100.00,West,260,9.0,16.0,75,-99.99,,,-99.99,,2013-01-03 23:03:00,
2013-01-03 17:12:00,21.0,14.0,-100.00,WSW,250,11.0,17.0,74,-99.99,,,-99.99,,2013-01-03 23:12:00,
2013-01-03 17:22:00,21.0,14.0,-100.00,West,275,8.0,16.0,75,-99.99,,,-99.99,,2013-01-03 23:22:00,
2013-01-03 17:33:00,21.0,14.0,-100.00,West,275,8.0,16.0,75,-99.99,,,-99.99,,2013-01-03 23:33:00,
2013-01-03 17:43:00,21.0,14.0,-100.00,SW,230,6.0,14.0,75,-99.99,,,-99.99,,2013-01-03 23:43:00,
2013-01-03 17:53:00,20.0,14.0,-100.00,WSW,255,7.0,14.0,74,-99.99,,,-99.99,,2013-01-03 23:53:00,
2013-01-03 18:03:00,20.0,14.0,-100.00,WSW,255,7.0,14.0,74,-99.99,,,-99.99,,2013-01-04 00:03:00,
2013-01-03 18:12:00,20.0,14.0,-100.00,WSW,245,6.0,13.0,74,-99.99,,,-99.99,,2013-01-04 00:12:00,
2013-01-03 18:22:00,20.0,14.0,-100.00,West,260,7.0,14.0,75,-99.99,,,-99.99,,2013-01-04 00:22:00,
2013-01-03 18:32:00,20.0,14.0,-100.00,West,260,7.0,14.0,75,-99.99,,,-99.99,,2013-01-04 00:32:00,
2013-01-03 18:42:00,20.0,14.0,-100.00,West,270,6.0,12.0,76,-99.99,,,-99.99,,2013-01-04 00:42:00,
2013-01-03 18:53:00,20.0,14.0,-100.00,West,260,8.0,14.0,76,-99.99,,,-99.99,,2013-01-04 00:53:00,
2013-01-03 19:02:00,20.0,14.0,-100.00,West,260,8.0,14.0,76,-99.99,,,-99.99,,2013-01-04 01:02:00,
2013-01-03 19:12:00,20.0,13.0,-100.00,WSW,250,8.0,15.0,75,-99.99,,,-99.99,,2013-01-04 01:12:00,
2013-01-03 19:22:00,20.0,14.0,-100.00,WSW,245,4.0,13.0,76,-99.99,,,-99.99,,2013-01-04 01:22:00,
2013-01-03 19:32:00,20.0,14.0,-100.00,WSW,245,4.0,13.0,76,-99.99,,,-99.99,,2013-01-04 01:32:00,
2013-01-03 19:42:00,20.0,14.0,-100.00,WSW,245,4.0,13.0,76,-99.99,,,-99.99,,2013-01-04 01:42:00,
2013-01-03 19:53:00,20.0,14.0,-100.00,West,275,9.0,15.0,78,-99.99,,,-99.99,,2013-01-04 01:53:00,
2013-01-03 20:02:00,20.0,14.0,-100.00,West,275,9.0,15.0,78,-99.99,,,-99.99,,2013-01-04 02:02:00,
2013-01-03 20:12:00,19.0,13.0,-100.00,West,270,9.0,14.0,78,-99.99,,,-99.99,,2013-01-04 02:12:00,
2013-01-03 20:22:00,19.0,13.0,-100.00,West,270,7.0,14.0,78,-99.99,,,-99.99,,2013-01-04 02:22:00,
2013-01-03 20:32:00,19.0,13.0,-100.00,West,270,7.0,14.0,78,-99.99,,,-99.99,,2013-01-04 02:32:00,
2013-01-03 20:42:00,18.0,12.0,-100.00,WSW,240,6.0,19.0,78,-99.99,,,-99.99,,2013-01-04 02:42:00,
2013-01-03 20:53:00,17.0,11.0,-100.00,WSW,255,11.0,18.0,77,-99.99,,,-99.99,,2013-01-04 02:53:00,
2013-01-03 21:02:00,17.0,11.0,-100.00,WSW,255,11.0,18.0,77,-99.99,,,-99.99,,2013-01-04 03:02:00,
2013-01-03 21:12:00,16.0,11.0,-100.00,WSW,255,8.0,16.0,78,-99.99,,,-99.99,,2013-01-04 03:12:00,
2013-01-03 21:22:00,16.0,10.0,-100.00,WNW,285,7.0,15.0,79,-99.99,,,-99.99,,2013-01-04 03:22:00,
2013-01-03 21:32:00,16.0,11.0,-100.00,WSW,255,8.0,14.0,80,-99.99,,,-99.99,,2013-01-04 03:32:00,
2013-01-03 21:42:00,16.0,11.0,-100.00,WSW,255,8.0,14.0,80,-99.99,,,-99.99,,2013-01-04 03:42:00,
2013-01-03 21:53:00,15.0,10.0,-100.00,WSW,255,4.0,14.0,80,-99.99,,,-99.99,,2013-01-04 03:53:00,
2013-01-03 22:02:00,15.0,10.0,-100.00,WSW,255,4.0,14.0,80,-99.99,,,-99.99,,2013-01-04 04:02:00,
2013-01-03 22:12:00,15.0,10.0,-100.00,SW,215,2.0,14.0,80,-99.99,,,-99.99,,2013-01-04 04:12:00,
2013-01-03 22:22:00,14.0,9.0,-100.00,WSW,240,5.0,13.0,79,-99.99,,,-99.99,,2013-01-04 04:22:00,
2013-01-03 22:32:00,14.0,9.0,-100.00,WSW,245,4.0,13.0,80,-99.99,,,-99.99,,2013-01-04 04:32:00,
2013-01-03 22:42:00,14.0,9.0,-100.00,WSW,245,4.0,13.0,80,-99.99,,,-99.99,,2013-01-04 04:42:00,
2013-01-03 22:52:00,14.0,9.0,-100.00,WSW,240,5.0,12.0,80,-99.99,,,-99.99,,2013-01-04 04:52:00,
2013-01-03 23:03:00,14.0,9.0,-100.00,WSW,240,5.0,12.0,80,-99.99,,,-99.99,,2013-01-04 05:03:00,
2013-01-03 23:12:00,14.0,9.0,-100.00,WSW,240,6.0,14.0,79,-99.99,,,-99.99,,2013-01-04 05:12:00,
2013-01-03 23:22:00,14.0,9.0,-100.00,SW,225,7.0,14.0,79,-99.99,,,-99.99,,2013-01-04 05:22:00,
2013-01-03 23:33:00,14.0,9.0,-100.00,WSW,255,10.0,14.0,79,-99.99,,,-99.99,,2013-01-04 05:33:00,
2013-01-03 23:42:00,14.0,9.0,-100.00,WSW,255,10.0,14.0,79,-99.99,,,-99.99,,2013-01-04 05:42:00,
2013-01-03 23:53:00,14.0,9.0,-100.00,SW,230,7.0,14.0,79,-99.99,,,-99.99,,2013-01-04 05:53:00,